Content
SEND FEEDBACK

Daily
Averages
Monthly
Summary
United States of America

CAPUTA, SOUTH DAKOTA


Home > North America > United States > South Dakota
Elevation: 3149 feet     Latitude: 44 03N     Longitude: 103 04W

WEATHER
 
SELECT A DAY
Number of Records: 200,263;   Date Range: 1/1/95 - 7/23/14
 
SHARE

PRINT THIS DATA

[ ← Previous Day ]
WEATHER ALMANAC - APRIL 7, 2014
[ Next Day → ]
[ °C ]   °F
Weather ElementAverageHighLow
Temperature44.5 °F54 °F (1:52 pm)34 °F (10:52 pm)
Dewpoint27.4 °F34 °F (4:52 am)23 °F (3:52 pm)
Humidity54.1 %82 % (4:52 am)30 % (3:52 pm)
Barometer30.07 in30.13 in (8:52 pm)29.95 in (2:52 am)
Wind Speed20.5 mph34.5 mph (8:52 am)
Wind Gust44.9 mph (11:52 am)
Weather ElementAverage
Visibility10 mi
Wind DirectionNNW (333.9 °)

Weather ElementTotal
Precipitation---
Heating Degree Days21 (Base 65)
Averaged from 23 records on April 7, 2014
WEATHER CONDITIONS BREAKOUT
WIND DIRECTION BREAKOUT
WEATHER BY HOUR - APRIL 7, 2014
[ °C ]   °F
Local TimeTemperatureDewpointHumidityBarometerVisibilityWind DirectionWind SpeedGust SpeedPrecipitationEventsConditions
1:52 AM39.0 °F30.9 °F73 %29.96 in10.0 miNNW (330°)10.4 mphPartly Cloudy
2:52 AM37.9 °F30.0 °F73 %29.95 in10.0 miNNW (330°)12.7 mphClear
3:52 AM42.1 °F33.1 °F70 %29.96 in10.0 miNorth (350°)18.4 mph26.5 mphOvercast
4:52 AM39.0 °F34.0 °F82 %29.98 in10.0 miNNW (330°)17.3 mphOvercast
5:52 AM39.9 °F32.0 °F73 %30.00 in10.0 miNNW (330°)21.9 mph28.8 mphScattered Clouds
6:52 AM39.0 °F30.9 °F73 %30.04 in10.0 miNNW (340°)20.7 mphClear
7:52 AM43.0 °F30.9 °F62 %30.05 in10.0 miNNW (340°)19.6 mph24.2 mphClear
8:52 AM46.0 °F28.9 °F51 %30.07 in10.0 miNNW (330°)34.5 mph43.7 mphClear
9:52 AM48.9 °F30.0 °F48 %30.09 in10.0 miNNW (330°)29.9 mph42.6 mphClear
10:52 AM50.0 °F28.0 °F43 %30.09 in10.0 miNNW (330°)31.1 mph41.4 mphPartly Cloudy
11:52 AM51.1 °F26.1 °F38 %30.10 in10.0 miNNW (340°)32.2 mph44.9 mphClear
12:52 PM52.0 °F26.1 °F37 %30.09 in10.0 miNNW (330°)31.1 mph41.4 mphPartly Cloudy
1:52 PM54.0 °F26.1 °F34 %30.09 in10.0 miNNW (330°)33.4 mph43.7 mphScattered Clouds
2:52 PM54.0 °F24.1 °F31 %30.09 in10.0 miNNW (330°)24.2 mph40.3 mphOvercast
3:52 PM54.0 °F23.0 °F30 %30.08 in10.0 miNNW (330°)29.9 mph40.3 mphMostly Cloudy
4:52 PM53.1 °F23.0 °F31 %30.09 in10.0 miNorth (350°)28.8 mph34.5 mphMostly Cloudy
5:52 PM52.0 °F23.0 °F32 %30.09 in10.0 miNorth (350°)23.0 mphPartly Cloudy
6:52 PM48.9 °F25.0 °F39 %30.10 in10.0 miNorth (350°)10.4 mphClear
7:52 PM37.9 °F25.0 °F60 %30.12 in10.0 miNNW (330°)6.9 mphClear
8:52 PM35.1 °F25.0 °F67 %30.13 in10.0 miNNW (330°)9.2 mphClear
9:52 PM37.9 °F25.0 °F60 %30.12 in10.0 miNNW (330°)10.4 mphClear
10:52 PM34.0 °F25.0 °F70 %30.13 in10.0 miNW (310°)6.9 mphClear
11:52 PM34.0 °F24.1 °F67 %30.13 in10.0 miNNW (330°)8.1 mphClear
Hourly data recorded from KRAP, located miles away from Caputa, South Dakota







STORIES FROM OUR PARTNERS